contact:dominique.lefevre@mio.osupytheas.fr, maurice.libes@osupytheas.fr, didier.mallarino@osupytheas.fr
Project:EMSO http://www.emso-fr.org/EMSO-France
Depth: 2436.0 m
Title:EMSO Ligure Ouest : Data MII capteur MICROCAT
DateTime_Computer,Latitude,Longitude,Temperature,Conductivity,Pressure,DateTime_Instrument
DateTime_Computer,Latitude,Longitude,degC,S m-1,dbar,DateTime_Instrument
2023-07-23T00:00:27Z,42.805,6.029,13.3043,4.60137,2470.763,2023-7-23T02:02:44Z
2023-07-23T00:03:30Z,42.805,6.029,13.3033,4.60123,2470.787,2023-7-23T02:05:47Z
2023-07-23T00:06:33Z,42.805,6.029,13.3036,4.60132,2470.8,2023-7-23T02:08:50Z
2023-07-23T00:09:36Z,42.805,6.029,13.3036,4.60126,2470.8,2023-7-23T02:11:53Z
2023-07-23T00:12:39Z,42.805,6.029,13.3040,4.60128,2470.81,2023-7-23T02:14:56Z
2023-07-23T00:15:42Z,42.805,6.029,13.3034,4.60135,2470.824,2023-7-23T02:17:59Z
2023-07-23T00:18:45Z,42.805,6.029,13.3036,4.60125,2470.74,2023-7-23T02:21:02Z
2023-07-23T00:21:48Z,42.805,6.029,13.3040,4.60127,2470.754,2023-7-23T02:24:06Z
2023-07-23T00:24:51Z,42.805,6.029,13.3039,4.60127,2470.8,2023-7-23T02:27:09Z
2023-07-23T00:27:54Z,42.805,6.029,13.3031,4.60144,2470.763,2023-7-23T02:30:12Z
2023-07-23T00:30:57Z,42.805,6.029,13.3035,4.60122,2470.763,2023-7-23T02:33:15Z
2023-07-23T00:34:01Z,42.805,6.029,13.3048,4.60141,2470.763,2023-7-23T02:36:18Z
2023-07-23T00:37:04Z,42.805,6.029,13.3035,4.60146,2470.777,2023-7-23T02:39:21Z
2023-07-23T00:40:07Z,42.805,6.029,13.3045,4.60148,2470.763,2023-7-23T02:42:24Z
2023-07-23T00:43:10Z,42.805,6.029,13.3054,4.60125,2470.754,2023-7-23T02:45:27Z
2023-07-23T00:46:13Z,42.805,6.029,13.3046,4.60133,2470.777,2023-7-23T02:48:30Z
2023-07-23T00:49:16Z,42.805,6.029,13.3039,4.60133,2470.763,2023-7-23T02:51:33Z
2023-07-23T00:52:19Z,42.805,6.029,13.3042,4.60135,2470.763,2023-7-23T02:54:36Z
2023-07-23T00:55:22Z,42.805,6.029,13.3040,4.60140,2470.717,2023-7-23T02:57:39Z
2023-07-23T00:58:25Z,42.805,6.029,13.3043,4.60149,2470.763,2023-7-23T03:00:43Z
2023-07-23T01:01:28Z,42.805,6.029,13.3033,4.60126,2470.763,2023-7-23T03:03:46Z
2023-07-23T01:04:31Z,42.805,6.029,13.3049,4.60137,2470.74,2023-7-23T03:06:49Z
2023-07-23T01:07:34Z,42.805,6.029,13.3044,4.60135,2470.74,2023-7-23T03:09:52Z
2023-07-23T01:10:38Z,42.805,6.029,13.3036,4.60137,2470.74,2023-7-23T03:12:55Z
2023-07-23T01:13:41Z,42.805,6.029,13.3041,4.60140,2470.74,2023-7-23T03:15:58Z
2023-07-23T01:16:44Z,42.805,6.029,13.3046,4.60145,2470.74,2023-7-23T03:19:01Z
2023-07-23T01:19:47Z,42.805,6.029,13.3048,4.60147,2470.754,2023-7-23T03:22:04Z
2023-07-23T01:22:50Z,42.805,6.029,13.3041,4.60156,2470.754,2023-7-23T03:25:07Z
2023-07-23T01:25:53Z,42.805,6.029,13.3034,4.60135,2470.74,2023-7-23T03:28:10Z
2023-07-23T01:28:56Z,42.805,6.029,13.3039,4.60133,2470.74,2023-7-23T03:31:13Z
2023-07-23T01:31:59Z,42.805,6.029,13.3047,4.60130,2470.717,2023-7-23T03:34:16Z
2023-07-23T01:35:02Z,42.805,6.029,13.3046,4.60138,2470.777,2023-7-23T03:37:20Z
2023-07-23T01:38:05Z,42.805,6.029,13.3039,4.60134,2470.763,2023-7-23T03:40:23Z
2023-07-23T01:41:08Z,42.805,6.029,13.3034,4.60133,2470.74,2023-7-23T03:43:26Z
2023-07-23T01:44:11Z,42.805,6.029,13.3037,4.60123,2470.717,2023-7-23T03:46:29Z
2023-07-23T01:47:15Z,42.805,6.029,13.3041,4.60128,2470.754,2023-7-23T03:49:32Z
2023-07-23T01:50:18Z,42.805,6.029,13.3046,4.60120,2470.74,2023-7-23T03:52:35Z
2023-07-23T01:53:21Z,42.805,6.029,13.3046,4.60142,2470.717,2023-7-23T03:55:38Z
2023-07-23T01:56:24Z,42.805,6.029,13.3041,4.60132,2470.717,2023-7-23T03:58:41Z
2023-07-23T01:59:27Z,42.805,6.029,13.3041,4.60125,2470.693,2023-7-23T04:01:44Z
2023-07-23T02:02:30Z,42.805,6.029,13.3036,4.60138,2470.693,2023-7-23T04:04:47Z
2023-07-23T02:05:33Z,42.805,6.029,13.3042,4.60138,2470.707,2023-7-23T04:07:50Z
2023-07-23T02:08:36Z,42.805,6.029,13.3049,4.60141,2470.693,2023-7-23T04:10:53Z
2023-07-23T02:11:39Z,42.805,6.029,13.3048,4.60146,2470.717,2023-7-23T04:13:57Z
2023-07-23T02:14:42Z,42.805,6.029,13.3041,4.60138,2470.73,2023-7-23T04:17:00Z
2023-07-23T02:17:45Z,42.805,6.029,13.3049,4.60144,2470.717,2023-7-23T04:20:03Z
2023-07-23T02:20:48Z,42.805,6.029,13.3051,4.60143,2470.693,2023-7-23T04:23:06Z
2023-07-23T02:23:52Z,42.805,6.029,13.3054,4.60135,2470.67,2023-7-23T04:26:09Z
2023-07-23T02:26:55Z,42.805,6.029,13.3044,4.60137,2470.693,2023-7-23T04:29:12Z
2023-07-23T02:29:58Z,42.805,6.029,13.3047,4.60134,2470.693,2023-7-23T04:32:15Z
2023-07-23T02:33:01Z,42.805,6.029,13.3036,4.60121,2470.67,2023-7-23T04:35:18Z
2023-07-23T02:36:04Z,42.805,6.029,13.3041,4.60134,2470.717,2023-7-23T04:38:21Z
2023-07-23T02:39:07Z,42.805,6.029,13.3036,4.60132,2470.67,2023-7-23T04:41:24Z
2023-07-23T02:42:10Z,42.805,6.029,13.3036,4.60143,2470.693,2023-7-23T04:44:27Z
2023-07-23T02:45:13Z,42.805,6.029,13.3041,4.60129,2470.693,2023-7-23T04:47:30Z
2023-07-23T02:48:16Z,42.805,6.029,13.3046,4.60144,2470.707,2023-7-23T04:50:34Z
2023-07-23T02:51:19Z,42.805,6.029,13.3040,4.60137,2470.693,2023-7-23T04:53:37Z
2023-07-23T02:54:22Z,42.805,6.029,13.3033,4.60126,2470.646,2023-7-23T04:56:40Z
2023-07-23T02:57:25Z,42.805,6.029,13.3041,4.60133,2470.717,2023-7-23T04:59:43Z
2023-07-23T03:00:29Z,42.805,6.029,13.3048,4.60127,2470.717,2023-7-23T05:02:46Z
2023-07-23T03:03:32Z,42.805,6.029,13.3052,4.60150,2470.67,2023-7-23T05:05:49Z
2023-07-23T03:06:35Z,42.805,6.029,13.3040,4.60154,2470.67,2023-7-23T05:08:52Z
2023-07-23T03:09:38Z,42.805,6.029,13.3043,4.60128,2470.684,2023-7-23T05:11:55Z
2023-07-23T03:12:41Z,42.805,6.029,13.3043,4.60146,2470.684,2023-7-23T05:14:58Z
2023-07-23T03:15:44Z,42.805,6.029,13.3041,4.60147,2470.661,2023-7-23T05:18:01Z
2023-07-23T03:18:47Z,42.805,6.029,13.3054,4.60142,2470.646,2023-7-23T05:21:04Z
2023-07-23T03:21:50Z,42.805,6.029,13.3048,4.60140,2470.684,2023-7-23T05:24:07Z
2023-07-23T03:24:53Z,42.805,6.029,13.3036,4.60133,2470.67,2023-7-23T05:27:11Z
2023-07-23T03:27:56Z,42.805,6.029,13.3050,4.60142,2470.707,2023-7-23T05:30:14Z
2023-07-23T03:30:59Z,42.805,6.029,13.3036,4.60140,2470.67,2023-7-23T05:33:17Z
2023-07-23T03:34:02Z,42.805,6.029,13.3037,4.60165,2470.684,2023-7-23T05:36:20Z
2023-07-23T03:37:06Z,42.805,6.029,13.3038,4.60141,2470.693,2023-7-23T05:39:23Z
2023-07-23T03:40:09Z,42.805,6.029,13.3045,4.60152,2470.67,2023-7-23T05:42:26Z
2023-07-23T03:43:12Z,42.805,6.029,13.3037,4.60129,2470.67,2023-7-23T05:45:29Z
2023-07-23T03:46:15Z,42.805,6.029,13.3043,4.60113,2470.693,2023-7-23T05:48:32Z
2023-07-23T03:49:18Z,42.805,6.029,13.3045,4.60146,2470.624,2023-7-23T05:51:35Z
2023-07-23T03:52:21Z,42.805,6.029,13.3038,4.60117,2470.661,2023-7-23T05:54:38Z
2023-07-23T03:55:24Z,42.805,6.029,13.3039,4.60126,2470.646,2023-7-23T05:57:41Z
2023-07-23T03:58:27Z,42.805,6.029,13.3041,4.60132,2470.637,2023-7-23T06:00:44Z
2023-07-23T04:01:30Z,42.805,6.029,13.3034,4.60144,2470.684,2023-7-23T06:03:48Z
2023-07-23T04:04:33Z,42.805,6.029,13.3039,4.60130,2470.67,2023-7-23T06:06:51Z
2023-07-23T04:07:36Z,42.805,6.029,13.3061,4.60122,2470.67,2023-7-23T06:09:54Z
2023-07-23T04:10:39Z,42.805,6.029,13.3039,4.60125,2470.646,2023-7-23T06:12:57Z
2023-07-23T04:13:42Z,42.805,6.029,13.3043,4.60120,2470.661,2023-7-23T06:16:00Z
2023-07-23T04:16:46Z,42.805,6.029,13.3036,4.60138,2470.661,2023-7-23T06:19:03Z
2023-07-23T04:19:49Z,42.805,6.029,13.3047,4.60140,2470.661,2023-7-23T06:22:06Z
2023-07-23T04:22:52Z,42.805,6.029,13.3039,4.60140,2470.637,2023-7-23T06:25:09Z
2023-07-23T04:25:55Z,42.805,6.029,13.3036,4.60133,2470.693,2023-7-23T06:28:12Z
2023-07-23T04:28:58Z,42.805,6.029,13.3044,4.60144,2470.637,2023-7-23T06:31:15Z
2023-07-23T04:32:01Z,42.805,6.029,13.3039,4.60137,2470.646,2023-7-23T06:34:18Z
2023-07-23T04:35:04Z,42.805,6.029,13.3038,4.60144,2470.661,2023-7-23T06:37:21Z
2023-07-23T04:38:07Z,42.805,6.029,13.3051,4.60138,2470.637,2023-7-23T06:40:24Z
2023-07-23T04:41:10Z,42.805,6.029,13.3043,4.60137,2470.637,2023-7-23T06:43:28Z
2023-07-23T04:44:13Z,42.805,6.029,13.3044,4.60153,2470.646,2023-7-23T06:46:31Z
2023-07-23T04:47:16Z,42.805,6.029,13.3040,4.60137,2470.637,2023-7-23T06:49:34Z
2023-07-23T04:50:20Z,42.805,6.029,13.3050,4.60147,2470.6,2023-7-23T06:52:37Z
2023-07-23T04:53:23Z,42.805,6.029,13.3043,4.60148,2470.67,2023-7-23T06:55:40Z
2023-07-23T04:56:26Z,42.805,6.029,13.3046,4.60157,2470.637,2023-7-23T06:58:43Z
2023-07-23T04:59:29Z,42.805,6.029,13.3043,4.60134,2470.637,2023-7-23T07:01:46Z
2023-07-23T05:02:32Z,42.805,6.029,13.3041,4.60132,2470.646,2023-7-23T07:04:49Z
2023-07-23T05:05:35Z,42.805,6.029,13.3040,4.60136,2470.624,2023-7-23T07:07:52Z
2023-07-23T05:08:38Z,42.805,6.029,13.3046,4.60142,2470.637,2023-7-23T07:10:55Z
2023-07-23T05:11:41Z,42.805,6.029,13.3043,4.60140,2470.646,2023-7-23T07:13:58Z
2023-07-23T05:14:44Z,42.805,6.029,13.3046,4.60132,2470.646,2023-7-23T07:17:01Z
2023-07-23T05:17:47Z,42.805,6.029,13.3045,4.60151,2470.67,2023-7-23T07:20:05Z
2023-07-23T05:20:50Z,42.805,6.029,13.3034,4.60135,2470.624,2023-7-23T07:23:08Z
2023-07-23T05:23:53Z,42.805,6.029,13.3043,4.60157,2470.6,2023-7-23T07:26:11Z
2023-07-23T05:26:56Z,42.805,6.029,13.3040,4.60144,2470.624,2023-7-23T07:29:14Z
2023-07-23T05:30:00Z,42.805,6.029,13.3041,4.60127,2470.614,2023-7-23T07:32:17Z
2023-07-23T05:33:03Z,42.805,6.029,13.3047,4.60132,2470.624,2023-7-23T07:35:20Z
2023-07-23T05:36:06Z,42.805,6.029,13.3041,4.60139,2470.661,2023-7-23T07:38:23Z
2023-07-23T05:39:09Z,42.805,6.029,13.3039,4.60135,2470.624,2023-7-23T07:41:26Z
2023-07-23T05:42:12Z,42.805,6.029,13.3034,4.60144,2470.646,2023-7-23T07:44:29Z
2023-07-23T05:45:15Z,42.805,6.029,13.3041,4.60132,2470.637,2023-7-23T07:47:32Z
2023-07-23T05:48:18Z,42.805,6.029,13.3036,4.60132,2470.624,2023-7-23T07:50:35Z
2023-07-23T05:51:21Z,42.805,6.029,13.3051,4.60147,2470.646,2023-7-23T07:53:38Z
2023-07-23T05:54:24Z,42.805,6.029,13.3045,4.60136,2470.637,2023-7-23T07:56:42Z
2023-07-23T05:57:27Z,42.805,6.029,13.3042,4.60129,2470.661,2023-7-23T07:59:45Z
2023-07-23T06:00:30Z,42.805,6.029,13.3032,4.60134,2470.646,2023-7-23T08:02:48Z
2023-07-23T06:03:33Z,42.805,6.029,13.3046,4.60147,2470.646,2023-7-23T08:05:51Z
2023-07-23T06:06:37Z,42.805,6.029,13.3039,4.60135,2470.646,2023-7-23T08:08:54Z
2023-07-23T06:09:40Z,42.805,6.029,13.3049,4.60141,2470.646,2023-7-23T08:11:57Z
2023-07-23T06:12:43Z,42.805,6.029,13.3046,4.60138,2470.646,2023-7-23T08:15:00Z
2023-07-23T06:15:46Z,42.805,6.029,13.3032,4.60128,2470.661,2023-7-23T08:18:03Z
2023-07-23T06:18:49Z,42.805,6.029,13.3039,4.60133,2470.684,2023-7-23T08:21:06Z
2023-07-23T06:21:52Z,42.805,6.029,13.3034,4.60125,2470.646,2023-7-23T08:24:09Z
2023-07-23T06:24:55Z,42.805,6.029,13.3045,4.60153,2470.646,2023-7-23T08:27:12Z
2023-07-23T06:27:58Z,42.805,6.029,13.3036,4.60135,2470.684,2023-7-23T08:30:15Z
2023-07-23T06:31:00Z,42.805,6.029,13.3036,4.60128,2470.646,2023-7-23T08:33:17Z
2023-07-23T06:34:03Z,42.805,6.029,13.3045,4.60137,2470.637,2023-7-23T08:36:20Z
2023-07-23T06:37:06Z,42.805,6.029,13.3043,4.60134,2470.646,2023-7-23T08:39:23Z
2023-07-23T06:40:09Z,42.805,6.029,13.3044,4.60144,2470.6,2023-7-23T08:42:26Z
2023-07-23T06:43:12Z,42.805,6.029,13.3034,4.60134,2470.637,2023-7-23T08:45:30Z
2023-07-23T06:46:15Z,42.805,6.029,13.3047,4.60135,2470.646,2023-7-23T08:48:33Z
2023-07-23T06:49:18Z,42.805,6.029,13.3041,4.60147,2470.624,2023-7-23T08:51:36Z
2023-07-23T06:52:21Z,42.805,6.029,13.3038,4.60136,2470.633,2023-7-23T08:54:39Z
2023-07-23T06:55:24Z,42.805,6.029,13.3038,4.60141,2470.684,2023-7-23T08:57:42Z
2023-07-23T06:58:28Z,42.805,6.029,13.3052,4.60149,2470.684,2023-7-23T09:00:45Z
2023-07-23T07:01:31Z,42.805,6.029,13.3037,4.60137,2470.661,2023-7-23T09:03:48Z
2023-07-23T07:04:34Z,42.805,6.029,13.3045,4.60150,2470.646,2023-7-23T09:06:51Z
2023-07-23T07:07:37Z,42.805,6.029,13.3042,4.60137,2470.684,2023-7-23T09:09:54Z
2023-07-23T07:10:40Z,42.805,6.029,13.3046,4.60154,2470.67,2023-7-23T09:12:57Z
2023-07-23T07:13:43Z,42.805,6.029,13.3044,4.60149,2470.67,2023-7-23T09:16:00Z
2023-07-23T07:16:46Z,42.805,6.029,13.3043,4.60135,2470.67,2023-7-23T09:19:03Z
2023-07-23T07:19:49Z,42.805,6.029,13.3041,4.60137,2470.693,2023-7-23T09:22:06Z
2023-07-23T07:22:52Z,42.805,6.029,13.3039,4.60133,2470.693,2023-7-23T09:25:10Z
2023-07-23T07:25:55Z,42.805,6.029,13.3036,4.60120,2470.661,2023-7-23T09:28:13Z
2023-07-23T07:28:58Z,42.805,6.029,13.3046,4.60122,2470.693,2023-7-23T09:31:16Z
2023-07-23T07:32:01Z,42.805,6.029,13.3058,4.60151,2470.661,2023-7-23T09:34:19Z
2023-07-23T07:35:05Z,42.805,6.029,13.3037,4.60137,2470.684,2023-7-23T09:37:22Z
2023-07-23T07:38:08Z,42.805,6.029,13.3038,4.60125,2470.661,2023-7-23T09:40:25Z
2023-07-23T07:41:11Z,42.805,6.029,13.3052,4.60152,2470.67,2023-7-23T09:43:28Z
2023-07-23T07:44:14Z,42.805,6.029,13.3051,4.60147,2470.717,2023-7-23T09:46:31Z
2023-07-23T07:47:17Z,42.805,6.029,13.3044,4.60131,2470.67,2023-7-23T09:49:34Z
2023-07-23T07:50:20Z,42.805,6.029,13.3041,4.60137,2470.693,2023-7-23T09:52:37Z
2023-07-23T07:53:23Z,42.805,6.029,13.3034,4.60146,2470.67,2023-7-23T09:55:40Z
2023-07-23T07:56:26Z,42.805,6.029,13.3036,4.60144,2470.717,2023-7-23T09:58:44Z
2023-07-23T07:59:29Z,42.805,6.029,13.3038,4.60161,2470.707,2023-7-23T10:01:47Z
2023-07-23T08:02:32Z,42.805,6.029,13.3040,4.60138,2470.693,2023-7-23T10:04:50Z
2023-07-23T08:05:35Z,42.805,6.029,13.3049,4.60137,2470.684,2023-7-23T10:07:53Z
2023-07-23T08:08:38Z,42.805,6.029,13.3054,4.60155,2470.693,2023-7-23T10:10:56Z
2023-07-23T08:11:42Z,42.805,6.029,13.3065,4.60128,2470.693,2023-7-23T10:13:59Z
2023-07-23T08:14:45Z,42.805,6.029,13.3044,4.60139,2470.684,2023-7-23T10:17:02Z
2023-07-23T08:17:48Z,42.805,6.029,13.3046,4.60137,2470.67,2023-7-23T10:20:05Z
2023-07-23T08:20:51Z,42.805,6.029,13.3045,4.60144,2470.693,2023-7-23T10:23:08Z
2023-07-23T08:23:54Z,42.805,6.029,13.3035,4.60130,2470.684,2023-7-23T10:26:11Z
2023-07-23T08:26:57Z,42.805,6.029,13.3044,4.60124,2470.693,2023-7-23T10:29:14Z
2023-07-23T08:30:00Z,42.805,6.029,13.3037,4.60140,2470.707,2023-7-23T10:32:17Z
2023-07-23T08:33:03Z,42.805,6.029,13.3031,4.60116,2470.707,2023-7-23T10:35:20Z
2023-07-23T08:36:06Z,42.805,6.029,13.3044,4.60147,2470.707,2023-7-23T10:38:23Z
2023-07-23T08:39:09Z,42.805,6.029,13.3041,4.60137,2470.684,2023-7-23T10:41:26Z
2023-07-23T08:42:12Z,42.805,6.029,13.3046,4.60110,2470.717,2023-7-23T10:44:29Z
2023-07-23T08:45:15Z,42.805,6.029,13.3056,4.60095,2470.693,2023-7-23T10:47:32Z
2023-07-23T08:48:18Z,42.805,6.029,13.3040,4.60111,2470.707,2023-7-23T10:50:36Z
2023-07-23T08:51:21Z,42.805,6.029,13.3039,4.60124,2470.717,2023-7-23T10:53:39Z
2023-07-23T08:54:24Z,42.805,6.029,13.3039,4.60124,2470.717,2023-7-23T10:56:42Z
2023-07-23T08:57:27Z,42.805,6.029,13.3046,4.60127,2470.717,2023-7-23T10:59:45Z
2023-07-23T09:00:31Z,42.805,6.029,13.3038,4.60129,2470.73,2023-7-23T11:02:48Z
2023-07-23T09:03:34Z,42.805,6.029,13.3040,4.60129,2470.74,2023-7-23T11:05:51Z
2023-07-23T09:06:37Z,42.805,6.029,13.3043,4.60106,2470.73,2023-7-23T11:08:54Z
2023-07-23T09:09:40Z,42.805,6.029,13.3040,4.60117,2470.717,2023-7-23T11:11:57Z
2023-07-23T09:12:43Z,42.805,6.029,13.3038,4.60104,2470.73,2023-7-23T11:15:00Z
2023-07-23T09:15:46Z,42.805,6.029,13.3042,4.60116,2470.717,2023-7-23T11:18:03Z
2023-07-23T09:18:49Z,42.805,6.029,13.3052,4.60125,2470.717,2023-7-23T11:21:06Z
2023-07-23T09:21:52Z,42.805,6.029,13.3044,4.60125,2470.74,2023-7-23T11:24:09Z
2023-07-23T09:24:55Z,42.805,6.029,13.3035,4.60093,2470.777,2023-7-23T11:27:13Z
2023-07-23T09:27:58Z,42.805,6.029,13.3025,4.60091,2470.717,2023-7-23T11:30:16Z
2023-07-23T09:31:01Z,42.805,6.029,13.3031,4.60109,2470.717,2023-7-23T11:33:19Z
2023-07-23T09:34:05Z,42.805,6.029,13.3028,4.60087,2470.74,2023-7-23T11:36:22Z
2023-07-23T09:37:08Z,42.805,6.029,13.3024,4.60086,2470.717,2023-7-23T11:39:25Z
2023-07-23T09:40:11Z,42.805,6.029,13.3038,4.60102,2470.707,2023-7-23T11:42:28Z
2023-07-23T09:43:14Z,42.805,6.029,13.3056,4.60107,2470.74,2023-7-23T11:45:31Z
2023-07-23T09:46:17Z,42.805,6.029,13.3024,4.60085,2470.721,2023-7-23T11:48:34Z
2023-07-23T09:49:20Z,42.805,6.029,13.3023,4.60085,2470.717,2023-7-23T11:51:37Z
2023-07-23T09:52:23Z,42.805,6.029,13.3035,4.60097,2470.717,2023-7-23T11:54:40Z
2023-07-23T09:55:26Z,42.805,6.029,13.3041,4.60102,2470.707,2023-7-23T11:57:43Z
2023-07-23T09:58:29Z,42.805,6.029,13.3033,4.60093,2470.693,2023-7-23T12:00:47Z
2023-07-23T10:01:32Z,42.805,6.029,13.3021,4.60085,2470.74,2023-7-23T12:03:50Z
2023-07-23T10:04:35Z,42.805,6.029,13.3025,4.60085,2470.754,2023-7-23T12:06:53Z
2023-07-23T10:07:38Z,42.805,6.029,13.3041,4.60102,2470.763,2023-7-23T12:09:56Z
2023-07-23T10:10:42Z,42.805,6.029,13.3031,4.60105,2470.74,2023-7-23T12:12:59Z
2023-07-23T10:13:45Z,42.805,6.029,13.3030,4.60097,2470.693,2023-7-23T12:16:02Z
2023-07-23T10:16:48Z,42.805,6.029,13.3023,4.60088,2470.717,2023-7-23T12:19:05Z
2023-07-23T10:19:51Z,42.805,6.029,13.3028,4.60084,2470.74,2023-7-23T12:22:08Z
2023-07-23T10:22:54Z,42.805,6.029,13.3027,4.60110,2470.707,2023-7-23T12:25:11Z
2023-07-23T10:25:57Z,42.805,6.029,13.3034,4.60101,2470.777,2023-7-23T12:28:14Z
2023-07-23T10:29:00Z,42.805,6.029,13.3039,4.60107,2470.707,2023-7-23T12:31:17Z
2023-07-23T10:32:01Z,42.805,6.029,13.3043,4.60112,2470.717,2023-7-23T12:34:19Z
2023-07-23T10:35:04Z,42.805,6.029,13.3044,4.60109,2470.693,2023-7-23T12:37:22Z
2023-07-23T10:38:08Z,42.805,6.029,13.3042,4.60117,2470.74,2023-7-23T12:40:25Z
2023-07-23T10:41:11Z,42.805,6.029,13.3043,4.60117,2470.73,2023-7-23T12:43:28Z
2023-07-23T10:44:14Z,42.805,6.029,13.3045,4.60117,2470.717,2023-7-23T12:46:31Z
2023-07-23T10:47:17Z,42.805,6.029,13.3048,4.60113,2470.693,2023-7-23T12:49:34Z
2023-07-23T10:50:20Z,42.805,6.029,13.3049,4.60108,2470.74,2023-7-23T12:52:37Z
2023-07-23T10:53:23Z,42.805,6.029,13.3048,4.60110,2470.717,2023-7-23T12:55:40Z
2023-07-23T10:56:26Z,42.805,6.029,13.3040,4.60122,2470.717,2023-7-23T12:58:43Z
2023-07-23T10:59:29Z,42.805,6.029,13.3047,4.60130,2470.717,2023-7-23T13:01:47Z
2023-07-23T11:02:32Z,42.805,6.029,13.3041,4.60119,2470.73,2023-7-23T13:04:50Z
2023-07-23T11:05:35Z,42.805,6.029,13.3046,4.60122,2470.693,2023-7-23T13:07:53Z
2023-07-23T11:08:38Z,42.805,6.029,13.3051,4.60119,2470.67,2023-7-23T13:10:56Z
2023-07-23T11:11:42Z,42.805,6.029,13.3055,4.60123,2470.693,2023-7-23T13:13:59Z
2023-07-23T11:14:45Z,42.805,6.029,13.3040,4.60119,2470.717,2023-7-23T13:17:02Z
2023-07-23T11:17:48Z,42.805,6.029,13.3048,4.60123,2470.707,2023-7-23T13:20:05Z
2023-07-23T11:20:51Z,42.805,6.029,13.3039,4.60132,2470.684,2023-7-23T13:23:08Z
2023-07-23T11:23:54Z,42.805,6.029,13.3044,4.60129,2470.74,2023-7-23T13:26:11Z
2023-07-23T11:26:57Z,42.805,6.029,13.3044,4.60142,2470.707,2023-7-23T13:29:14Z
2023-07-23T11:30:00Z,42.805,6.029,13.3046,4.60133,2470.693,2023-7-23T13:32:17Z
2023-07-23T11:33:03Z,42.805,6.029,13.3046,4.60149,2470.717,2023-7-23T13:35:21Z
2023-07-23T11:36:06Z,42.805,6.029,13.3051,4.60132,2470.717,2023-7-23T13:38:24Z
2023-07-23T11:39:09Z,42.805,6.029,13.3051,4.60134,2470.693,2023-7-23T13:41:27Z
2023-07-23T11:42:12Z,42.805,6.029,13.3041,4.60122,2470.693,2023-7-23T13:44:30Z
2023-07-23T11:45:16Z,42.805,6.029,13.3045,4.60127,2470.693,2023-7-23T13:47:33Z
2023-07-23T11:48:19Z,42.805,6.029,13.3037,4.60125,2470.693,2023-7-23T13:50:36Z
2023-07-23T11:51:22Z,42.805,6.029,13.3037,4.60128,2470.693,2023-7-23T13:53:39Z
2023-07-23T11:54:25Z,42.805,6.029,13.3038,4.60125,2470.693,2023-7-23T13:56:42Z
2023-07-23T11:57:28Z,42.805,6.029,13.3047,4.60125,2470.693,2023-7-23T13:59:45Z
2023-07-23T12:00:31Z,42.805,6.029,13.3048,4.60128,2470.73,2023-7-23T14:02:48Z
2023-07-23T12:03:34Z,42.805,6.029,13.3046,4.60124,2470.707,2023-7-23T14:05:51Z
2023-07-23T12:06:37Z,42.805,6.029,13.3044,4.60140,2470.67,2023-7-23T14:08:54Z
2023-07-23T12:09:40Z,42.805,6.029,13.3037,4.60127,2470.67,2023-7-23T14:11:58Z
2023-07-23T12:12:43Z,42.805,6.029,13.3045,4.60132,2470.67,2023-7-23T14:15:01Z
2023-07-23T12:15:46Z,42.805,6.029,13.3043,4.60133,2470.693,2023-7-23T14:18:04Z
2023-07-23T12:18:49Z,42.805,6.029,13.3046,4.60130,2470.684,2023-7-23T14:21:07Z
2023-07-23T12:21:53Z,42.805,6.029,13.3050,4.60131,2470.693,2023-7-23T14:24:10Z
2023-07-23T12:24:56Z,42.805,6.029,13.3043,4.60149,2470.707,2023-7-23T14:27:13Z
2023-07-23T12:27:59Z,42.805,6.029,13.3041,4.60126,2470.684,2023-7-23T14:30:16Z
2023-07-23T12:31:02Z,42.805,6.029,13.3041,4.60125,2470.67,2023-7-23T14:33:19Z
2023-07-23T12:34:05Z,42.805,6.029,13.3045,4.60135,2470.646,2023-7-23T14:36:22Z
2023-07-23T12:37:08Z,42.805,6.029,13.3048,4.60137,2470.684,2023-7-23T14:39:25Z
2023-07-23T12:40:11Z,42.805,6.029,13.3041,4.60135,2470.684,2023-7-23T14:42:28Z
2023-07-23T12:43:14Z,42.805,6.029,13.3048,4.60144,2470.684,2023-7-23T14:45:32Z
2023-07-23T12:46:17Z,42.805,6.029,13.3043,4.60122,2470.684,2023-7-23T14:48:35Z
2023-07-23T12:49:20Z,42.805,6.029,13.3043,4.60125,2470.684,2023-7-23T14:51:38Z
2023-07-23T12:52:23Z,42.805,6.029,13.3040,4.60114,2470.646,2023-7-23T14:54:41Z
2023-07-23T12:55:27Z,42.805,6.029,13.3038,4.60117,2470.693,2023-7-23T14:57:44Z
2023-07-23T12:58:30Z,42.805,6.029,13.3051,4.60129,2470.67,2023-7-23T15:00:47Z
2023-07-23T13:01:33Z,42.805,6.029,13.3039,4.60121,2470.646,2023-7-23T15:03:50Z
2023-07-23T13:04:36Z,42.805,6.029,13.3044,4.60135,2470.684,2023-7-23T15:06:53Z
2023-07-23T13:07:39Z,42.805,6.029,13.3034,4.60110,2470.646,2023-7-23T15:09:56Z
2023-07-23T13:10:42Z,42.805,6.029,13.3041,4.60122,2470.693,2023-7-23T15:12:59Z
2023-07-23T13:13:45Z,42.805,6.029,13.3035,4.60122,2470.67,2023-7-23T15:16:02Z
2023-07-23T13:16:48Z,42.805,6.029,13.3035,4.60120,2470.646,2023-7-23T15:19:05Z
2023-07-23T13:19:51Z,42.805,6.029,13.3042,4.60122,2470.684,2023-7-23T15:22:09Z
2023-07-23T13:22:54Z,42.805,6.029,13.3038,4.60112,2470.707,2023-7-23T15:25:12Z
2023-07-23T13:25:57Z,42.805,6.029,13.3040,4.60125,2470.646,2023-7-23T15:28:15Z
2023-07-23T13:29:00Z,42.805,6.029,13.3044,4.60133,2470.67,2023-7-23T15:31:18Z
2023-07-23T13:32:04Z,42.805,6.029,13.3041,4.60134,2470.646,2023-7-23T15:34:21Z
2023-07-23T13:35:07Z,42.805,6.029,13.3043,4.60110,2470.684,2023-7-23T15:37:24Z
2023-07-23T13:38:10Z,42.805,6.029,13.3036,4.60113,2470.67,2023-7-23T15:40:27Z
2023-07-23T13:41:13Z,42.805,6.029,13.3040,4.60110,2470.624,2023-7-23T15:43:30Z
2023-07-23T13:44:16Z,42.805,6.029,13.3031,4.60114,2470.646,2023-7-23T15:46:33Z
2023-07-23T13:47:19Z,42.805,6.029,13.3041,4.60110,2470.661,2023-7-23T15:49:36Z
2023-07-23T13:50:22Z,42.805,6.029,13.3051,4.60139,2470.661,2023-7-23T15:52:39Z
2023-07-23T13:53:25Z,42.805,6.029,13.3039,4.60125,2470.646,2023-7-23T15:55:43Z
2023-07-23T13:56:28Z,42.805,6.029,13.3036,4.60102,2470.684,2023-7-23T15:58:46Z
2023-07-23T13:59:31Z,42.805,6.029,13.3041,4.60110,2470.646,2023-7-23T16:01:49Z
2023-07-23T14:02:34Z,42.805,6.029,13.3038,4.60112,2470.6,2023-7-23T16:04:52Z
2023-07-23T14:05:38Z,42.805,6.029,13.3035,4.60123,2470.646,2023-7-23T16:07:55Z
2023-07-23T14:08:41Z,42.805,6.029,13.3034,4.60111,2470.661,2023-7-23T16:10:58Z
2023-07-23T14:11:44Z,42.805,6.029,13.3039,4.60108,2470.646,2023-7-23T16:14:01Z
2023-07-23T14:14:47Z,42.805,6.029,13.3036,4.60130,2470.637,2023-7-23T16:17:04Z
2023-07-23T14:17:50Z,42.805,6.029,13.3036,4.60106,2470.624,2023-7-23T16:20:07Z
2023-07-23T14:20:53Z,42.805,6.029,13.3036,4.60105,2470.637,2023-7-23T16:23:10Z
2023-07-23T14:23:56Z,42.805,6.029,13.3036,4.60104,2470.646,2023-7-23T16:26:13Z
2023-07-23T14:26:59Z,42.805,6.029,13.3032,4.60103,2470.646,2023-7-23T16:29:17Z
2023-07-23T14:30:02Z,42.805,6.029,13.3036,4.60102,2470.6,2023-7-23T16:32:20Z
2023-07-23T14:33:04Z,42.805,6.029,13.3041,4.60108,2470.661,2023-7-23T16:35:21Z
2023-07-23T14:36:07Z,42.805,6.029,13.3040,4.60114,2470.624,2023-7-23T16:38:25Z
2023-07-23T14:39:10Z,42.805,6.029,13.3036,4.60107,2470.624,2023-7-23T16:41:28Z
2023-07-23T14:42:13Z,42.805,6.029,13.3039,4.60109,2470.6,2023-7-23T16:44:31Z
2023-07-23T14:45:16Z,42.805,6.029,13.3034,4.60108,2470.6,2023-7-23T16:47:34Z
2023-07-23T14:48:19Z,42.805,6.029,13.3041,4.60109,2470.637,2023-7-23T16:50:37Z
2023-07-23T14:51:23Z,42.805,6.029,13.3036,4.60109,2470.661,2023-7-23T16:53:40Z
2023-07-23T14:54:26Z,42.805,6.029,13.3032,4.60104,2470.6,2023-7-23T16:56:43Z
2023-07-23T14:57:29Z,42.805,6.029,13.3034,4.60099,2470.6,2023-7-23T16:59:46Z
2023-07-23T15:00:32Z,42.805,6.029,13.3034,4.60103,2470.651,2023-7-23T17:02:49Z
2023-07-23T15:03:35Z,42.805,6.029,13.3029,4.60102,2470.646,2023-7-23T17:05:52Z
2023-07-23T15:06:38Z,42.805,6.029,13.3036,4.60104,2470.6,2023-7-23T17:08:55Z
2023-07-23T15:09:41Z,42.805,6.029,13.3039,4.60104,2470.6,2023-7-23T17:11:58Z
2023-07-23T15:12:44Z,42.805,6.029,13.3031,4.60102,2470.624,2023-7-23T17:15:02Z